Regional Weather Roundup
Issued by NWS

Home | Current Version | Previous Version | Graphics & Text | Print | Product List | Glossary On
Versions: 1 2 3 4 5 6 7 8 9 10 11 12 13 14 15 16 17 18 19 20 21 22 23 24 25 26 27 28 29 30 31 32 33 34 35 36 37 38 39 40 41 42 43 44 45 46 47 48 49 50
000
ASUS45 KBOU 241007
RWRCO

WEATHER ROUNDUP FOR COLORADO
NATIONAL WEATHER SERVICE DENVER/BOULDER CO
300 AM MST WED DEC 24 2014

NOTE: "FAIR" INDICATES FEW OR NO CLOUDS BELOW 12000 FEET WITH NO
SIGNIFICANT WEATHER AND/OR OBSTRUCTIONS TO VISIBILITY.

COZ001>005-013-030-031-241100-
...NORTHWEST COLORADO...

CITY           SKY/WX    TMP DP  RH WIND       PRES   REMARKS
CRAIG          FAIR       1  -5  75 CALM      30.24S
HAYDEN         FAIR       9   1  72 SE13      30.20S WCI  -7
MEEKER         FAIR       1  -4  79 NE3       30.23S
MOUNT WERNER   NOT AVBL
STEAMBOAT SPGS FAIR       7   4  88 CALM      30.21R
WALDEN         FAIR       0  -6  78 SE7       30.11F WCI -13
$$

COZ006>008-011-241100-
...WEST CENTRAL VALLEYS...

CITY           SKY/WX    TMP DP  RH WIND       PRES   REMARKS
GRAND JUNCTION FLURRIES  20  14  77 SE9       30.27S WCI   9
MONTROSE       FAIR      14   8  77 SE7       30.28F WCI   4
EAGLE          FAIR       0  -6  78 CALM      30.30S
RIFLE          FAIR      14   6  70 E3        30.29S
DELTA          FAIR      16   9  74 CALM      30.29F
NUCLA          FAIR      18  10  73 SE8       30.27S WCI   7
$$

COZ017>023-064>068-241100-
...SOUTHWEST COLORADO...

CITY           SKY/WX    TMP DP  RH WIND       PRES   REMARKS
DURANGO        FAIR      12   5  73 CALM      30.13F
CORTEZ         FAIR      23   7  50 NE5       30.16F WCI  17
PAGOSA SPRINGS FAIR       5  -2  71 CALM      30.12S
TELLURIDE      FAIR       6   0  74 SE6       30.14F WCI  -4
WOLF CREEK PAS FAIR      10 -22  22 MISG      30.04R
$$

COZ009-010-012-014-032>034-037-058>063-241100-
...CENTRAL COLORADO...

CITY           SKY/WX    TMP DP  RH WIND       PRES   REMARKS
ASPEN          FAIR      -1  -7  75 CALM      30.19S
BUENA VISTA    FAIR      13  -1  53 N17       30.04F WCI  -4
COPPER MTN     FAIR       5  -2  72 W18       30.02F WCI -15
BERTHOUD PASS  NOT AVBL
COTTONWOOD PAS FAIR      18  -8  32 NW7G21    29.98F WCI   8
GUNNISON       FAIR      -9 -11  92 CALM      30.22F
KREMMLING      FAIR       5   0  78 CALM      30.21S
LEADVILLE      FAIR      -1  -6  79 N12       30.05F WCI -18
MONARCH PASS     N/A      0  -4  85 MISG      30.10R
SALIDA         FAIR      11  -1  58 NW6       30.15F WCI   2
SUNLIGHT         N/A    N/A N/A N/A MISG      30.11S
WILKERSON PASS FAIR      10   0  61 N14G23    29.94F WCI  -5
$$

COZ069>075-241100-
...SAN LUIS VALLEY/SANGRE DE CRISTO MOUNTAINS...

CITY           SKY/WX    TMP DP  RH WIND       PRES   REMARKS
ALAMOSA        FAIR       1  -4  79 SW6       30.12R WCI -10
LA VETA PASS   FAIR       3  -4  72 SW8       29.96F WCI -10
SAGUACHE       FAIR      14   1  57 N25       30.07F WCI  -5
$$

COZ035-036-038>040-241100-
...NORTHERN COLORADO FRONT RANGE...

CITY           SKY/WX    TMP DP  RH WIND       PRES   REMARKS
DENVER INTL AP FAIR      16   6  65 S12       29.97F WCI   3
DMNS CITY PARK   N/A     21   3  46 S5G12     29.98F WCI  14
AURORA         PTCLDY    17   5  58 S12       29.98F WCI   4
FRONT RANGE AP FAIR      18  10  73 S13       29.98F WCI   4
ERIE MUNI ARPT   N/A     12   8  84 CALM      29.99F
BOULDER MUN AP FAIR      18   9  68 N3        29.97F
CENTENNIAL     FAIR      14   4  64 S9        29.97F WCI   2
BROOMFIELD     FAIR      23  12  63 CALM      29.97F
FORT COLLINS   FAIR      16   3  57 SE6       29.99F WCI   7
LONGMONT       FAIR      13   6  73 W3        30.00F
$$

COZ041-046-047-076>085-087-088-241100-
...PIKES PEAK/PALMER DIVIDE AND SOUTHERN FOOTHILLS...

CITY           SKY/WX    TMP DP  RH WIND       PRES   REMARKS
COLO. SPRINGS  FAIR      12   2  64 N5        30.04F WCI   4
A. F. ACADEMY  FAIR       5  -3  68 N7        30.01F WCI  -7
ELLICOTT       NOT AVBL
FALCON         FAIR      12  -2  55 W8        30.01F WCI   0
FORT CARSON    FAIR      14   3  62 NW7       30.03F WCI   4
LIMON          FAIR      16   8  71 W10       30.02S WCI   4
MONUMENT HILL  FAIR       9  -4  56 SW10      29.96F WCI  -6
TRINIDAD         N/A    N/A N/A N/A MISG      30.06F
$$

COZ042>045-048>051-090-091-241100-
...NORTHEAST COLORADO...

CITY           SKY/WX    TMP DP  RH WIND       PRES   REMARKS
GREELEY ARPT   FAIR      12   3  67 E3        29.99F
AKRON          FAIR      14   9  80 W12       30.00F WCI   0
BURLINGTON     FAIR      15   9  76 W9        30.03F WCI   3
WRAY           FAIR      15  12  86 W8        30.05S WCI   4
STERLING       FAIR      10   9  92 S3        30.02F
HOLYOKE        FAIR      19  14  79 W6        30.03F WCI  11
FORT MORGAN    FAIR      12   7  79 W7        30.01F WCI   1
$$

COZ086-089-092>099-241100-
...SOUTHEAST COLORADO...

CITY           SKY/WX    TMP DP  RH WIND       PRES   REMARKS
PUEBLO         FAIR      14   8  77 CALM      30.10S
LA JUNTA       FAIR      19  11  70 W12       30.08F WCI   7
LAMAR          FAIR      18  13  80 W7        30.07F WCI   9
SPRINGFIELD      N/A     19  13  77 NW13      30.06F WCI   6
$$


USA.gov is the U.S. government's official web portal to all federal, state and local government web resources and services.